Regional Weather Roundup
Issued by NWS

Home | Current Version | Previous Version | Text Only | Print | Product List | Glossary Off
Versions: 1 2 3 4 5 6 7 8 9 10 11 12 13 14 15 16 17 18 19 20 21 22 23 24 25 26 27 28 29 30 31 32 33 34 35 36 37 38 39 40 41 42 43 44 45 46 47 48 49 50

000
ASUS45 KABQ 290101
RWRNM
NEW MEXICO REGIONAL WEATHER ROUNDUP
NATIONAL WEATHER SERVICE ALBUQUERQUE NM
700 PM MDT THU APR 28 2016

NOTE: "FAIR" MEANS FEW OR NO CLOUDS BELOW 12,000 FEET AGL WITH NO
       SIGNIFICANT WEATHER OR OBSTRUCTIONS TO VISION.

      THIS PRODUCT IS RELEASED AS TWO VERSIONS.  ONE VERSION NEAR
      THE TOP OF THE HOUR CONTAINING PRELIMINARY DATA FROM ALBUQUERQUE
      AND OTHER STATIONS.  A FINAL VERSION WITH ADDITIONAL DATA IS
      ISSUED ABOUT 10 MINUTES AFTER THE HOUR.

NMZ501-503-504-510>518-290200-
NORTHWEST PLATEAU/NORTHCENTRAL MOUNTAINS

CITY           SKY/WX    TMP DP  RH WIND       PRES   REMARKS
FARMINGTON     FAIR      53  26  35 NW13      29.74R
SANTA FE       MOCLDY    61  27  27 SE16      29.73S
TAOS           CLOUDY    54  25  32 SE18G25   29.80F

$$
NMZ402-403-502-505>509-290200-
WESTCENTRAL MOUNTAINS/SOUTHWEST MOUNTAINS

CITY           SKY/WX    TMP DP  RH WIND       PRES   REMARKS
GALLUP         PTSUNNY   56  12  17 SW28G36   29.76R
GRANTS         FAIR      59   5  11 W8        29.76R
SILVER CITY      N/A     68  14  12 SW25G35   29.75S

$$
NMZ407-409-411-412-290200-
SOUTHERN DESERTS

CITY           SKY/WX    TMP DP  RH WIND       PRES   REMARKS
LORDSBURG      FAIR      72   7   8 SW21G30   29.69S
DEMING         FAIR      74  21  13 SW16G26   29.70S
HOLLOMAN AFB   FAIR      77  18  11 SW17      29.67F
ALAMOGORDO     FAIR      77  18  10 SW18      29.70S
T OR C         FAIR      72   9   8 SW24G37   29.67F

$$
NMZ519>523-290200-
CENTRAL VALLEYS/CENTRAL HIGHLANDS

CITY           SKY/WX    TMP DP  RH WIND       PRES   REMARKS
ALBUQUERQUE    MOCLDY    71   9   9 S26G32    29.68S
DOUBLE EAGLE   MOCLDY    68   3   8 SW22G28   29.70R
CLINES CORNERS FAIR      61   5  10 SW20      29.79S
BELEN          FAIR      71   3   7 SW22G28   29.68R
SOCORRO        NOT AVBL

$$
NMZ524>526-539-540-290200-
SOUTHCENTRAL MOUNTAINS

CITY           SKY/WX    TMP DP  RH WIND       PRES   REMARKS
RUIDOSO        NOT AVBL

$$
NMZ527>531-290200-
NORTHEAST HIGHLANDS/NORTHEAST PLAINS

CITY           SKY/WX    TMP DP  RH WIND       PRES   REMARKS
LAS VEGAS      CLOUDY    57  26  30 SE22      29.81F
RATON          FAIR      43  39  86 N15       29.88S
CLAYTON        FAIR      55  40  56 NE21G31   29.86R

$$
NMZ532>537-290200-
EASTCENTRAL PLAINS

CITY           SKY/WX    TMP DP  RH WIND       PRES   REMARKS
TUCUMCARI      FAIR      65  46  50 NE23G29   29.71R
CANNON AFB     FAIR      77  15   9 S18       29.70S
CLOVIS AIRPORT FAIR      75  19  12 SW14      29.72R

$$
NMZ028-029-538-290200-
SOUTHEAST PLAINS

CITY           SKY/WX    TMP DP  RH WIND       PRES   REMARKS
ROSWELL        FAIR      80  14   8 SW14      29.66R
ARTESIA        FAIR      81  18   9 SW12G17   29.66S
CARLSBAD       FAIR      83  12   7 W8        29.63S
HOBBS          FAIR      82  16   8 SE13G20   29.69R


$$



USA.gov is the U.S. government's official web portal to all federal, state and local government web resources and services.